カタログに戻る

SL-16 DEB

運用中LEO
NORAD 22291·DEBRIS·🇷🇺 Russia

打ち上げ Dec 25, 1992 から Baikonur Cosmodrome

Loading…

次のパス (今後24時間)

TLE

最新Source: Space-Track

元期: Sep 14, 2026, 12:35 UTC

1 22291U 92093F   26257.52483977  .00000105  00000-0  13878-3 0  9992
2 22291  71.0097 309.3724 0210088 278.8933 146.9429 13.72573998688000

AllMySatでSL-16 DEBをリアルタイム追跡

Download on the App Store